Location: Home
(42.5358°N, 72.7383°W)
Time: 20:45:03
(UTC-05:00)

Vanguard 2 - Pass Details

Date: 06 December 2021
Orbit: 553 x 2936 km, 32.9° (Epoch: 20 January)

Event Time Altitude Azimuth Distance (km) Brightness Sun altitude
Rises 13:35:12 0° 244° (WSW) 2,826 11.3 19.9°
Reaches altitude 10° 13:37:24 10° 233° (SW) 2,045 11.1 19.7°
Maximum altitude 13:41:27 30° 171° (S) 1,386 9.9 19.3°
Drops below altitude 10° 13:47:05 10° 112° (ESE) 2,898 10.5 18.8°
Sets 13:50:50 0° 103° (ESE) 4,262 11.2 18.4°
